Massena, NY

3:58 PM EST on December 05, 2019 (GMT -0500)
Massena International-Richards

Weather History for KMSS - October, 2019

Change the Weather History Date:

Tuesday, October 22, 2019

  Actual Average Record
Temperature  
Mean Temperature 56 °F 44 °F  
Max Temperature 65 °F 54 °F 82 °F (1979)
Min Temperature 46 °F 34 °F 19 °F (1948)
Degree Days  
Heating Degree Days 9 21  
Month to date heating degree days 354 379  
Since 1 July heating degree days 569 679  
Cooling Degree Days 0 0  
Month to date cooling degree days 0 0  
Year to date cooling degree days 398 361  
Growing Degree Days 5 (Base 50)    
Moisture  
Dew Point 47 °F    
Average Humidity 75    
Maximum Humidity 96    
Minimum Humidity 53    
Precipitation  
Precipitation 0.55 in 0.11 in 1.68 in (1988)
Month to date precipitation 3.99 2.38  
Year to date precipitation 27.70 28.57  
Sea Level Pressure  
Sea Level Pressure 29.89 in    
Wind  
Wind Speed 5 mph (East)    
Max Wind Speed 20 mph    
Max Gust Speed 24 mph    
Visibility 10 miles    
Events Rain    
T = Trace of Precipitation, MM = Missing Value Source: NWS Daily Summary

Daily Weather History Graph

Daily Weather History Graph

Search for Another Location

Airport or City:

Astronomy

Oct. 22, 2019 Rise Set
Actual Time 7:23 AM EDT 6:03 PM EDT
Civil Twilight 6:53 AM EDT 6:33 PM EDT
Nautical Twilight 6:19 AM EDT 7:07 PM EDT
Astronomical Twilight 5:45 AM EDT 7:41 PM EDT
Moon 12:08 AM EDT (10/22) 3:30 PM EDT (10/22)
Length of Visible Light 11h 39m
Length of Day
10h 39m
Last Quarter, 37% of the Moon is Illuminated
Oct 22
Last Quarter
Oct 27
New
Nov 4
First Quarter
Nov 12
Full
Nov 19
Last Quarter

Hourly Weather History & Observations

Time (EDT) Temp. Dew Point Humidity Pressure Visibility Wind Dir Wind Speed Gust Speed Precip Events Conditions
12:53 AM 48.9 °F 41.0 °F 74% 30.05 in 10.0 mi NE 8.1 mph - N/A   Clear
1:53 AM 46.9 °F 41.0 °F 80% 30.03 in 10.0 mi ENE 3.5 mph - N/A   Clear
2:53 AM 46.9 °F 42.1 °F 83% 30.00 in 10.0 mi ENE 6.9 mph - N/A   Clear
3:53 AM 48.0 °F 43.0 °F 83% 29.98 in 10.0 mi NE 6.9 mph - N/A   Clear
4:53 AM 48.9 °F 43.0 °F 80% 29.98 in 10.0 mi East 8.1 mph - N/A   Clear
5:53 AM 48.0 °F 44.1 °F 86% 29.98 in 10.0 mi Calm Calm - N/A   Clear
6:53 AM 48.0 °F 44.1 °F 86% 29.97 in 10.0 mi Calm Calm - N/A   Clear
7:53 AM 48.9 °F 45.0 °F 86% 29.94 in 10.0 mi ENE 6.9 mph - N/A   Clear
8:53 AM 50.0 °F 45.0 °F 83% 29.94 in 10.0 mi Calm Calm - N/A   Clear
9:53 AM 52.0 °F 45.0 °F 77% 29.93 in 10.0 mi East 8.1 mph - N/A   Partly Cloudy
10:53 AM 54.0 °F 46.0 °F 75% 29.91 in 10.0 mi East 8.1 mph - N/A   Overcast
11:53 AM 57.0 °F 46.0 °F 67% 29.88 in 10.0 mi East 6.9 mph - N/A   Mostly Cloudy
12:53 PM 62.1 °F 48.0 °F 60% 29.87 in 10.0 mi ENE 6.9 mph - N/A   Overcast
1:20 PM 64.9 °F 48.0 °F 54% 29.85 in 10.0 mi SSE 13.8 mph - N/A   Overcast
1:53 PM 64.9 °F 48.0 °F 54% 29.84 in 10.0 mi SSE 16.1 mph 23.0 mph N/A   Overcast
2:53 PM 62.1 °F 48.0 °F 60% 29.83 in 10.0 mi SE 6.9 mph - 0.00 in   Overcast
3:53 PM 62.1 °F 45.0 °F 53% 29.81 in 10.0 mi SE 9.2 mph - N/A   Overcast
4:53 PM 60.1 °F 45.0 °F 57% 29.80 in 10.0 mi East 3.5 mph - 0.00 in   Overcast
5:53 PM 57.9 °F 48.0 °F 70% 29.84 in 7.0 mi South 8.1 mph - 0.02 in Rain Rain
6:53 PM 54.0 °F 51.1 °F 90% 29.84 in 6.0 mi SE 4.6 mph - 0.24 in Rain Rain
7:53 PM 54.0 °F 51.1 °F 90% 29.82 in 10.0 mi ESE 3.5 mph - 0.05 in Rain Light Rain
8:53 PM 53.1 °F 51.1 °F 93% 29.82 in 10.0 mi East 5.8 mph - 0.03 in Rain Light Rain
9:53 PM 53.1 °F 51.1 °F 93% 29.81 in 9.0 mi East 4.6 mph - 0.11 in Rain Rain
10:53 PM 53.1 °F 52.0 °F 96% 29.79 in 10.0 mi Calm Calm - 0.02 in Rain Light Rain
11:53 PM 53.1 °F 52.0 °F 96% 29.79 in 8.0 mi Calm Calm - 0.05 in Rain Light Rain